Location: *
(43.4667°N, 11.6833°E)
Time: 16:19:13
(UTC+00:00)

USA 267 - Pass Details

Date: 19 July 2019
Orbit: 1101 x 1106 km, 123.0° (Epoch: 18 August)

Event Time Altitude Azimuth Distance (km) Brightness Sun altitude
Exits shadow 20:02:35 14° 122° (ESE) 2,673 4.7 -11.5°
Maximum altitude 20:08:22 80° 37° (NE) 1,122 3.3 -12.2°
Drops below altitude 10° 20:14:55 10° 312° (NW) 2,965 7.0 -13.1°
Sets 20:17:24 0° 312° (NW) 3,926 8.2 -13.4°
